Wind_Speed
12 10 9 9 9 10 11 12 14 14 15 16 17 17 17 16 17 18 18 19 20 20 21 21 22 23 22 21 21 20 20 19 18 17 16 15 15 14 14 14 14 13 13
15 13 11 11 10 10 11 12 14 15 16 16 16 16 16 17 18 20 21 22 22 23 24 25 26 26 25 26 24 21 19 19 19 18 17 16 16 15 14 14 14 14 14
16 14 12 12 12 13 14 14 15 16 16 17 17 18 19 21 21 22 22 23 23 24 25 25 25 27 29 28 24 22 21 19 19 20 18 18 17 16 14 14 14 14 14
16 14 14 13 14 15 16 17 18 19 20 20 20 22 23 23 25 24 22 24 27 26 26 28 26 26 26 25 22 19 19 22 20 20 19 18 17 16 15 14 14 15 15
17 15 15 16 17 18 18 19 20 20 21 22 23 24 25 26 28 28 27 29 27 29 29 29 28 25 25 25 24 21 18 19 22 23 21 20 18 18 18 17 17 16 16
18 17 17 18 19 21 21 21 21 23 24 25 25 27 28 28 29 28 27 28 30 29 29 29 27 27 25 24 23 23 21 18 19 22 23 22 21 20 21 19 18 18 17
19 19 19 20 21 22 22 23 24 26 27 28 30 30 30 31 33 31 29 29 31 31 28 28 28 27 25 25 24 24 23 20 20 20 22 24 24 22 20 20 19 19 20
20 20 21 21 22 23 24 25 27 28 29 29 33 35 36 34 34 34 28 27 29 30 29 28 28 29 28 27 25 21 20 19 19 18 20 22 24 23 23 23 23 23 21
22 22 22 23 24 25 26 27 29 30 32 31 33 36 39 38 36 35 33 30 29 28 30 31 30 31 29 29 25 22 19 21 21 22 23 23 24 26 27 25 24 28 19
24 24 23 24 24 26 28 30 31 32 34 34 34 34 36 37 37 38 32 30 30 30 31 32 31 32 29 28 27 27 27 27 25 24 23 24 25 27 27 29 28 28 27
26 25 25 26 27 29 30 31 32 33 34 36 36 34 34 34 34 36 38 30 30 32 32 34 31 29 32 29 31 24 28 28 26 24 23 23 23 23 24 25 27 27 24
25 26 28 29 31 31 31 32 33 34 35 36 35 35 34 33 32 34 36 36 33 31 34 34 30 26 27 29 24 22 25 25 23 22 20 20 20 20 20 20 23 26 28
29 30 31 31 33 33 33 35 37 37 38 37 36 34 33 33 33 34 34 34 34 32 30 30 23 29 30 24 25 23 22 23 22 20 21 20 17 18 18 18 18 19 22
39 44 37 36 34 37 37 38 39 39 39 39 37 36 34 34 34 34 32 31 31 28 25 24 29 31 23 29 24 21 22 21 22 21 21 19 18 18 17 16 16 16 18
41 40 39 38 37 41 41 41 40 39 39 38 38 36 35 34 32 31 30 29 28 25 22 24 22 25 26 25 23 21 22 21 21 21 20 20 20 19 17 15 15 15 15
39 34 35 39 42 43 44 43 39 38 38 37 36 35 34 33 31 30 28 27 25 24 25 22 30 23 26 23 22 23 22 23 21 20 17 15 15 15 13 13 15 16 17
33 32 37 43 44 45 41 39 37 37 37 36 35 33 33 31 30 28 26 25 24 21 22 24 26 25 24 23 22 22 21 18 16 12 11 13 12 13 14 14 14 16 16
40 42 43 43 43 40 38 36 35 35 35 34 33 32 31 30 28 27 26 25 23 21 21 22 21 23 23 21 17 16 16 13 15 13 14 15 15 16 16 15 15 16 17
40 41 42 41 37 36 35 35 35 34 34 34 33 31 30 28 27 26 25 23 21 20 20 19 19 16 14 12 10 9 10 13 16 16 16 17 17 17 18 18 19 19 19
38 37 35 34 35 34 34 34 35 35 35 33 32 30 29 28 27 25 23 21 20 20 18 15 13 12 11 12 13 14 14 16 16 17 17 19 18 18 19 20 20 20 19
32 32 32 33 33 33 33 34 35 34 34 32 30 27 26 25 25 22 20 19 17 14 13 13 13 13 13 16 16 17 17 18 18 18 19 18 18 18 18 19 20 19 18
29 31 32 32 32 32 33 33 33 33 32 30 29 24 23 22 20 19 17 15 13 14 14 14 14 16 16 18 19 17 19 18 18 18 19 17 17 16 17 18 18 18 17
27 29 30 31 31 31 32 32 32 31 29 26 25 23 22 19 18 17 16 15 14 14 14 16 16 16 17 18 18 18 18 17 17 17 18 16 17 17 17 17 17 17 17
27 28 29 30 30 31 30 30 29 27 25 24 23 21 21 17 17 16 16 15 15 15 16 16 16 17 17 17 17 18 17 16 16 17 17 17 17 17 17 17 17 18 18
26 28 29 29 29 29 27 26 24 23 21 19 18 18 17 16 17 15 15 16 16 16 15 15 16 16 16 16 17 18 17 17 16 18 17 17 17 18 17 18 17 18 19
28 28 28 27 25 24 22 21 19 18 16 15 15 16 16 16 16 14 15 17 15 15 15 15 15 16 16 17 18 18 18 17 17 18 18 17 17 18 18 20 20 20 22
Wind_Direction
272 272 276 282 289 294 294 294 292 292 291 293 295 297 301 306 308 309 312 314 316 316 317 316 315 316 316 315 315 314 314 313 314 314 313 311 309 307 304 303 303 303 305
267 269 273 280 287 293 300 304 306 305 301 299 299 300 299 298 302 307 309 311 314 313 312 312 312 313 315 312 310 305 303 305 308 308 308 307 307 304 302 302 300 300 298
259 263 270 281 292 302 306 308 308 305 303 301 301 301 302 303 304 305 306 309 309 311 309 308 308 309 308 309 308 307 307 303 299 300 302 301 303 301 299 299 301 301 296
252 254 264 275 287 298 303 304 304 303 302 302 302 301 301 302 303 304 306 308 310 309 307 306 307 302 304 306 306 302 298 299 298 298 297 297 298 295 296 296 297 295 293
243 248 262 276 287 295 298 300 300 301 300 300 300 299 301 302 302 303 306 307 307 308 310 310 310 308 306 302 304 299 291 290 292 294 293 293 290 290 291 292 291 287 287
238 249 262 274 285 292 295 297 299 299 301 301 301 300 301 300 298 298 300 299 300 298 301 303 303 304 302 303 302 299 293 286 280 283 286 287 287 289 289 287 286 285 285
238 252 265 275 282 288 293 296 297 298 299 300 300 301 301 301 298 295 293 295 297 300 302 299 300 302 301 297 299 297 292 294 288 273 274 281 283 284 283 285 281 278 280
248 259 269 275 281 286 290 293 295 296 298 300 301 303 303 302 302 302 298 295 295 298 301 300 300 298 298 298 299 296 292 290 278 275 268 267 274 279 280 281 279 278 272
261 266 269 274 279 284 288 290 292 293 295 297 298 299 301 301 301 299 301 302 299 299 298 296 296 294 296 297 297 292 293 290 286 277 272 266 264 266 270 276 283 271 275
259 262 270 276 282 287 289 290 292 292 293 295 293 293 293 294 295 295 294 295 293 292 291 290 291 293 291 291 292 287 293 297 294 288 279 272 269 267 263 258 260 269 274
264 272 276 282 285 286 286 288 289 291 292 292 292 291 288 288 289 290 292 292 289 289 288 287 289 287 284 288 290 279 289 295 293 289 284 280 276 275 270 263 255 250 259
268 275 281 283 283 283 285 287 289 290 290 290 290 290 288 287 287 285 287 291 288 284 282 282 282 286 296 289 293 290 294 294 295 292 287 287 285 281 275 267 255 248 250
277 282 285 284 280 281 284 287 288 288 288 289 289 288 286 285 285 283 284 286 286 285 280 278 281 276 291 286 295 299 293 292 292 292 292 288 287 287 279 270 260 255 252
273 272 281 277 277 281 285 289 289 288 286 285 285 285 285 284 283 282 282 281 281 278 276 278 265 279 280 292 291 288 288 289 289 294 291 287 286 289 282 271 261 260 260
272 274 274 273 278 281 286 290 289 288 286 285 284 283 282 282 281 281 281 279 280 276 274 278 270 271 285 284 286 286 288 288 289 289 287 281 283 282 276 266 260 260 257
265 266 274 279 281 286 291 289 287 287 286 287 286 284 282 282 281 279 277 276 278 277 276 275 274 273 284 280 279 283 286 290 290 293 288 281 280 277 267 265 256 264 264
271 268 270 277 283 288 286 285 287 287 287 288 287 286 283 280 279 278 276 275 276 272 267 262 272 278 278 277 281 283 284 284 289 290 289 290 288 283 275 272 268 271 273
269 270 273 277 281 283 283 284 286 286 286 284 283 282 280 277 273 272 274 273 271 269 270 271 275 277 279 283 280 275 274 270 278 284 290 289 289 288 283 279 277 276 276
263 268 274 279 279 278 281 284 285 285 284 282 280 280 277 274 273 273 271 270 267 265 263 264 266 268 275 281 280 276 272 275 279 284 284 284 285 284 284 284 282 279 277
270 273 274 275 277 279 280 283 286 287 286 282 278 276 273 271 268 266 262 258 258 258 256 247 247 257 269 271 276 275 275 276 280 281 283 282 283 283 283 281 278 276 277
270 272 275 278 279 281 282 283 285 286 284 281 276 273 271 269 266 261 258 258 253 241 237 245 254 262 267 271 274 276 280 277 280 281 281 280 282 282 282 280 279 279 279
276 279 280 280 282 285 284 285 285 284 280 276 272 266 262 260 258 256 249 235 231 237 243 252 259 265 268 271 275 279 279 281 282 285 281 283 283 282 279 279 278 279 277
281 283 284 285 285 285 285 284 282 278 274 270 267 261 253 247 242 234 228 229 238 247 257 262 266 270 271 273 277 276 277 280 281 281 283 283 281 280 279 278 279 277 276
287 288 288 288 288 286 284 282 280 275 268 260 255 249 245 232 223 226 238 242 247 256 262 268 273 274 275 278 279 277 278 279 280 281 282 282 283 283 281 280 278 277 278
293 291 289 289 288 285 283 278 274 269 260 251 246 241 229 230 235 234 243 252 258 261 268 274 276 279 282 283 281 281 282 282 283 282 281 282 284 284 282 280 278 278 279
294 293 291 290 290 290 285 276 267 257 247 241 234 227 232 234 242 246 254 256 261 268 272 274 280 284 287 287 284 283 282 282 282 281 282 281 279 278 279 280 280 281 281
Height
3198 3199 3200 3200 3200 3200 3200 3200 3200 3200 3199 3199 3198 3197 3196 3195 3193 3192 3191 3189 3187 3185 3183 3181 3179 3178 3176 3174 3173 3171 3169 3168 3167 3166 3165 3163 3162 3161 3161 3160 3159 3159 3158
3195 3196 3197 3197 3197 3197 3197 3196 3196 3195 3194 3194 3194 3192 3192 3191 3190 3188 3187 3185 3184 3182 3179 3177 3175 3173 3171 3169 3168 3168 3167 3165 3163 3162 3161 3160 3159 3158 3158 3157 3157 3156 3156
3193 3193 3194 3194 3194 3194 3193 3193 3192 3191 3191 3190 3189 3188 3187 3186 3185 3184 3183 3181 3179 3177 3175 3172 3170 3168 3166 3165 3163 3162 3161 3161 3160 3158 3157 3156 3155 3155 3154 3153 3153 3153 3152
3189 3190 3190 3191 3191 3190 3190 3189 3189 3188 3187 3186 3185 3184 3183 3182 3180 3179 3178 3176 3174 3172 3170 3168 3166 3163 3160 3158 3158 3158 3157 3156 3154 3154 3153 3152 3151 3151 3150 3150 3150 3149 3149
3184 3186 3186 3186 3186 3186 3186 3185 3185 3184 3182 3181 3181 3179 3178 3177 3175 3174 3172 3169 3168 3166 3164 3162 3159 3157 3155 3153 3152 3152 3153 3152 3150 3148 3148 3147 3147 3146 3145 3145 3145 3145 3145
3180 3181 3182 3183 3182 3182 3181 3181 3179 3178 3178 3176 3175 3174 3173 3172 3169 3168 3167 3166 3163 3161 3159 3156 3154 3152 3150 3148 3147 3145 3145 3146 3146 3144 3143 3142 3142 3141 3140 3140 3140 3140 3140
3174 3176 3177 3177 3177 3177 3176 3175 3174 3173 3173 3171 3168 3167 3166 3165 3164 3162 3161 3159 3156 3153 3152 3150 3147 3146 3144 3143 3142 3139 3138 3139 3139 3139 3138 3137 3136 3135 3135 3135 3135 3135 3134
3170 3172 3173 3172 3172 3172 3171 3170 3169 3168 3167 3166 3162 3160 3157 3159 3156 3153 3154 3153 3150 3147 3145 3144 3142 3139 3138 3136 3135 3133 3132 3132 3132 3132 3131 3131 3130 3129 3129 3129 3129 3129 3129
3165 3166 3166 3167 3167 3166 3166 3165 3163 3162 3160 3160 3158 3154 3149 3148 3147 3146 3144 3144 3143 3141 3139 3137 3136 3134 3132 3130 3128 3128 3127 3126 3125 3124 3124 3124 3124 3124 3124 3123 3123 3123 3123
3159 3160 3161 3161 3160 3159 3159 3158 3157 3156 3154 3152 3151 3149 3146 3142 3139 3137 3139 3138 3136 3135 3133 3131 3129 3128 3126 3124 3122 3120 3119 3118 3118 3117 3116 3116 3115 3116 3116 3116 3117 3116 3116
3153 3154 3154 3154 3154 3154 3153 3152 3151 3149 3147 3145 3142 3141 3139 3137 3135 3131 3128 3132 3130 3127 3124 3123 3124 3122 3119 3118 3116 3114 3113 3112 3110 3110 3108 3107 3107 3107 3108 3108 3108 3110 3110
3148 3148 3148 3148 3148 3147 3146 3145 3144 3142 3140 3138 3135 3133 3131 3130 3129 3126 3123 3120 3122 3121 3117 3115 3115 3113 3113 3111 3109 3108 3106 3105 3104 3103 3102 3101 3099 3099 3099 3100 3100 3101 3103
3141 3142 3142 3142 3141 3141 3139 3138 3136 3134 3131 3130 3127 3125 3123 3121 3120 3118 3116 3114 3112 3111 3108 3107 3107 3107 3106 3104 3103 3102 3099 3098 3098 3097 3096 3094 3093 3093 3093 3093 3094 3096 3097
3133 3133 3135 3134 3134 3133 3131 3129 3127 3125 3122 3120 3118 3116 3114 3112 3111 3110 3108 3107 3106 3104 3102 3100 3102 3101 3099 3097 3096 3096 3095 3093 3092 3091 3091 3090 3089 3088 3088 3088 3089 3090 3091
3125 3125 3125 3126 3124 3124 3122 3119 3117 3115 3113 3111 3109 3108 3106 3104 3103 3102 3100 3099 3098 3097 3097 3094 3095 3094 3093 3092 3091 3089 3089 3088 3087 3086 3085 3085 3084 3083 3083 3083 3084 3085 3086
3116 3116 3116 3116 3115 3114 3112 3110 3107 3106 3104 3102 3101 3099 3098 3096 3095 3094 3093 3092 3091 3091 3089 3088 3088 3087 3088 3086 3085 3085 3084 3083 3083 3082 3080 3079 3079 3079 3079 3079 3079 3080 3081
3109 3108 3109 3107 3106 3104 3102 3100 3098 3096 3095 3093 3092 3091 3090 3088 3088 3086 3086 3085 3084 3083 3083 3083 3082 3082 3082 3081 3079 3079 3079 3078 3078 3077 3077 3077 3076 3076 3075 3075 3075 3075 3075
3101 3101 3100 3098 3096 3094 3092 3090 3088 3087 3086 3085 3083 3082 3081 3080 3079 3078 3077 3077 3077 3077 3077 3077 3077 3076 3076 3074 3073 3072 3073 3073 3074 3073 3073 3073 3072 3073 3072 3071 3070 3070 3070
3092 3091 3090 3088 3086 3084 3082 3081 3079 3078 3076 3075 3074 3073 3072 3071 3071 3071 3071 3071 3070 3070 3071 3071 3072 3071 3070 3069 3069 3068 3069 3069 3070 3069 3068 3068 3068 3067 3067 3067 3066 3065 3064
3082 3082 3080 3078 3077 3075 3073 3071 3070 3069 3068 3066 3065 3064 3064 3063 3063 3062 3063 3063 3063 3064 3064 3065 3066 3066 3065 3065 3065 3065 3064 3064 3063 3064 3063 3063 3062 3061 3062 3061 3060 3060 3059
3073 3072 3071 3069 3067 3066 3064 3062 3061 3060 3058 3057 3056 3055 3056 3056 3057 3056 3056 3057 3058 3059 3060 3061 3063 3061 3060 3061 3060 3060 3059 3059 3057 3057 3058 3057 3056 3055 3055 3055 3054 3053 3053
3064 3063 3062 3060 3059 3057 3055 3054 3051 3050 3049 3048 3048 3047 3048 3049 3050 3051 3052 3053 3053 3055 3055 3056 3057 3057 3055 3056 3056 3054 3054 3053 3052 3051 3052 3051 3050 3049 3048 3048 3047 3047 3046
3057 3056 3054 3052 3051 3049 3046 3044 3043 3041 3041 3040 3041 3040 3042 3042 3043 3045 3046 3047 3048 3049 3050 3051 3050 3051 3050 3050 3049 3049 3048 3047 3046 3045 3045 3044 3043 3043 3042 3041 3041 3041 3040
3049 3047 3046 3044 3042 3039 3037 3035 3034 3034 3033 3033 3034 3034 3037 3037 3038 3040 3043 3043 3043 3044 3046 3045 3045 3046 3045 3043 3043 3044 3042 3041 3040 3039 3039 3038 3037 3037 3036 3035 3035 3035 3034
3042 3040 3038 3036 3033 3031 3029 3027 3026 3027 3027 3027 3028 3030 3032 3034 3036 3036 3037 3039 3038 3038 3039 3040 3040 3040 3039 3038 3037 3037 3036 3035 3034 3033 3033 3032 3031 3030 3029 3029 3029 3028 3027
3035 3032 3030 3027 3025 3023 3021 3020 3020 3021 3021 3023 3025 3027 3029 3030 3033 3032 3033 3035 3034 3034 3034 3035 3034 3034 3033 3033 3033 3031 3030 3028 3028 3028 3027 3027 3025 3025 3024 3022 3022 3021 3019